Find Starlink 11166

NORAD ID: 60062 Int'l Des: 2024-113 Owner: SPXS Country: US Constellation: starlink operational
又名: STARLINK-11166 [DTC] celestrak
LEOCIRCULAR

当前视图

正在加载3D地球...

About Starlink 11166

Starlink 11166 (NORAD 60062) is a starlink constellation satellite (v2 mini d2c) launched Jun 19, 2024 by SPXS of US. It operates in LEO, CIRCULAR orbit with a mass of 960.00 kg.

即将过境

Passes for default location (London). Set your location on the main map for personalized predictions.

高度历史

Loading altitude history...

两行轨道根数

1 60062U 24113D 26263.40269277 -.00004323 00000-0 -30823-4 0 9995
2 60062 53.1586 311.3062 0001293 60.2654 299.8492 15.69723583130149
Epoch: Sep 20, 2026 • Age: 56 hours

当前状态

高度 378.9 km
远地点 / 近地点 N/A
速度 7.68 km/s
星下点 -52.89°S, 49.52°W
发射日期 Jun 19, 2024
运行时间 2.2 years
类型 internet

技术详情

分类 Payload
质量 960.00 kg
干质量 910.00 kg
长度 0.30 m
跨度 29.00 m
形状 ? Box + pan
制造商 SPXS
平台类型 Starlink V2MD
阶段状态 In Orbit
所有者/国家 SPXS/US

Most Searched